Weather History for Georgetown, SC

Change the Weather History Date:

Friday, October 7, 2011

  Actual Average Record
Temperature  
Mean Temperature 68 °F -  
Max Temperature 77 °F 80 °F 86 °F (2012)
Min Temperature 59 °F 57 °F 46 °F (2010)
Cooling Degree Days 3    
Growing Degree Days 18 (Base 50)    
Moisture  
Dew Point 52 °F    
Average Humidity 62    
Maximum Humidity 82    
Minimum Humidity 34    
Precipitation  
Precipitation 0.00 in - - ()
Sea Level Pressure  
Sea Level Pressure 30.32 in    
Wind  
Wind Speed 9 mph (NE)    
Max Wind Speed 17 mph    
Max Gust Speed 22 mph    
Visibility 10 miles    
Events Thunderstorm    
Averages and records for this station are not official NWS values.
T = Trace of Precipitation, MM = Missing Value Source: NWS Daily Summary

Daily Weather History Graph

Daily Weather History Graph

Search for Another Location

Airport:

Trip Planner

Search our weather history database for the weather conditions in past years. The results will help you decide how hot, cold, wet, or windy it might be!

Date:

Astronomy

Oct. 07, 2011 Rise Set
Actual Time 7:15 AM EDT 6:54 PM EDT
Civil Twilight 6:50 AM EDT 7:18 PM EDT
Nautical Twilight 6:22 AM EDT 7:47 PM EDT
Astronomical Twilight 5:53 AM EDT 8:16 PM EDT
Moon 4:26 PM EDT (10/7) 3:14 AM EDT (10/7)
Length of Visible Light 12h 28m
Length of Day
11h 38m
Waxing Gibbous, 83% of the Moon is Illuminated
Oct 7
Waxing Gibbous
Oct 11
Full
Oct 19
Last Quarter
Oct 26
New
Nov 2
First Quarter

Hourly Weather History & Observations

Time (EDT) Temp. Dew Point Humidity Pressure Visibility Wind Dir Wind Speed Gust Speed Precip Events Conditions
12:15 AM 60.8 °F 51.8 °F 72% 30.29 in 10.0 mi NNE 6.9 mph - N/A   Clear
12:35 AM 60.8 °F 51.8 °F 72% 30.29 in 10.0 mi NNE 5.8 mph - N/A   Clear
12:55 AM 60.8 °F 51.8 °F 72% 30.29 in 10.0 mi NNE 5.8 mph - N/A   Clear
1:15 AM 60.8 °F 51.8 °F 72% 30.29 in 10.0 mi NNE 6.9 mph - N/A   Clear
1:35 AM 60.8 °F 53.6 °F 77% 30.29 in 10.0 mi NNE 8.1 mph - N/A   Clear
1:55 AM 60.8 °F 53.6 °F 77% 30.29 in 10.0 mi NNE 8.1 mph - N/A   Clear
2:15 AM 60.8 °F 53.6 °F 77% 30.28 in 10.0 mi NNE 6.9 mph - N/A   Clear
2:35 AM 60.8 °F 53.6 °F 77% 30.29 in 10.0 mi NNE 6.9 mph - N/A   Clear
2:55 AM 60.8 °F 53.6 °F 77% 30.28 in 10.0 mi NNE 6.9 mph - N/A   Scattered Clouds
3:15 AM 60.8 °F 53.6 °F 77% 30.28 in 10.0 mi NNE 4.6 mph - N/A   Scattered Clouds
3:35 AM 59.0 °F 53.6 °F 82% 30.28 in 10.0 mi NNE 6.9 mph - N/A   Scattered Clouds
3:55 AM 60.8 °F 53.6 °F 77% 30.28 in 10.0 mi North 4.6 mph - N/A   Overcast
4:15 AM 60.8 °F 53.6 °F 77% 30.28 in 10.0 mi North 5.8 mph - N/A Thunderstorm Overcast
4:35 AM 60.8 °F 53.6 °F 77% 30.28 in 10.0 mi NNE 6.9 mph - N/A   Mostly Cloudy
4:55 AM 59.0 °F 53.6 °F 82% 30.28 in 10.0 mi NNE 6.9 mph - N/A   Scattered Clouds
5:15 AM 59.0 °F 53.6 °F 82% 30.29 in 10.0 mi NNE 8.1 mph - N/A   Mostly Cloudy
5:35 AM 59.0 °F 51.8 °F 77% 30.29 in 10.0 mi NNE 8.1 mph - N/A   Scattered Clouds
5:55 AM 59.0 °F 51.8 °F 77% 30.29 in 10.0 mi NNE 9.2 mph - N/A   Clear
6:15 AM 59.0 °F 51.8 °F 77% 30.30 in 10.0 mi NNE 9.2 mph - N/A   Clear
6:35 AM 59.0 °F 51.8 °F 77% 30.30 in 10.0 mi NNE 9.2 mph - N/A   Clear
6:55 AM 59.0 °F 50.0 °F 72% 30.31 in 10.0 mi NNE 8.1 mph - N/A   Clear
7:15 AM 59.0 °F 50.0 °F 72% 30.32 in 10.0 mi NNE 8.1 mph - N/A   Clear
7:35 AM 59.0 °F 50.0 °F 72% 30.32 in 10.0 mi NNE 9.2 mph - N/A   Clear
7:55 AM 59.0 °F 48.2 °F 67% 30.32 in 10.0 mi NNE 9.2 mph - N/A   Clear
8:15 AM 60.8 °F 46.4 °F 59% 30.33 in 10.0 mi NNE 10.4 mph - N/A   Clear
8:35 AM 60.8 °F 46.4 °F 59% 30.34 in 10.0 mi NNE 9.2 mph - N/A   Clear
8:55 AM 62.6 °F 46.4 °F 55% 30.34 in 10.0 mi NE 10.4 mph 17.3 mph N/A   Clear
9:15 AM 64.4 °F 48.2 °F 56% 30.34 in 10.0 mi NE 11.5 mph 17.3 mph N/A   Clear
9:35 AM 66.2 °F 50.0 °F 56% 30.34 in 10.0 mi NNE 12.7 mph - N/A   Clear
9:55 AM 68.0 °F 50.0 °F 52% 30.35 in 10.0 mi NNE 12.7 mph - N/A   Clear
10:15 AM 69.8 °F 50.0 °F 49% 30.35 in 10.0 mi NNE 11.5 mph 17.3 mph N/A   Clear
10:35 AM 69.8 °F 51.8 °F 53% 30.35 in 10.0 mi NNE 12.7 mph 17.3 mph N/A   Clear
10:55 AM 71.6 °F 53.6 °F 53% 30.35 in 10.0 mi NE 13.8 mph 19.6 mph N/A   Clear
11:15 AM 71.6 °F 55.4 °F 57% 30.36 in 10.0 mi NNE 11.5 mph 17.3 mph N/A   Clear
11:35 AM 73.4 °F 55.4 °F 53% 30.35 in 10.0 mi NE 12.7 mph 17.3 mph N/A   Clear
11:55 AM 75.2 °F 59.0 °F 57% 30.35 in 10.0 mi NE 10.4 mph 17.3 mph N/A   Clear
12:15 PM 75.2 °F 59.0 °F 57% 30.35 in 10.0 mi ENE 12.7 mph 19.6 mph N/A   Clear
12:35 PM 75.2 °F 59.0 °F 57% 30.34 in 10.0 mi ENE 12.7 mph 19.6 mph N/A   Clear
12:55 PM 77.0 °F 57.2 °F 50% 30.34 in 10.0 mi ENE 12.7 mph 19.6 mph N/A   Clear
1:15 PM 77.0 °F 53.6 °F 44% 30.34 in 10.0 mi NE 11.5 mph 19.6 mph N/A   Clear
1:35 PM 77.0 °F 53.6 °F 44% 30.33 in 10.0 mi ENE 12.7 mph - N/A   Clear
1:55 PM 77.0 °F 50.0 °F 39% 30.33 in 10.0 mi ENE 13.8 mph 20.7 mph N/A   Clear
2:15 PM 77.0 °F 46.4 °F 34% 30.33 in 10.0 mi ENE 13.8 mph 17.3 mph N/A   Clear
2:35 PM 77.0 °F 50.0 °F 39% 30.33 in 10.0 mi ENE 12.7 mph 17.3 mph N/A   Clear
2:55 PM 77.0 °F 50.0 °F 39% 30.32 in 10.0 mi NE 15.0 mph - N/A   Clear
3:35 PM 77.0 °F 48.2 °F 36% 30.32 in 10.0 mi NE 15.0 mph - N/A   Clear
3:55 PM 77.0 °F 53.6 °F 44% 30.33 in 10.0 mi NE 13.8 mph 18.4 mph N/A   Scattered Clouds
4:15 PM 77.0 °F 53.6 °F 44% 30.33 in 10.0 mi NE 11.5 mph 18.4 mph N/A   Scattered Clouds
4:35 PM 77.0 °F 53.6 °F 44% 30.33 in 10.0 mi NE 11.5 mph 21.9 mph N/A   Scattered Clouds
4:55 PM 75.2 °F 53.6 °F 47% 30.33 in 10.0 mi NE 17.3 mph - N/A   Clear
5:15 PM 73.4 °F 55.4 °F 53% 30.33 in 10.0 mi ENE 17.3 mph 21.9 mph N/A   Clear
5:35 PM 73.4 °F 59.0 °F 61% 30.33 in 10.0 mi ENE 13.8 mph 20.7 mph N/A   Clear
5:55 PM 71.6 °F 59.0 °F 64% 30.33 in 10.0 mi ENE 12.7 mph 20.7 mph N/A   Clear
6:15 PM 71.6 °F 60.8 °F 69% 30.33 in 10.0 mi ENE 12.7 mph 19.6 mph N/A   Clear
6:35 PM 71.6 °F 60.8 °F 69% 30.33 in 10.0 mi NE 13.8 mph 17.3 mph N/A   Clear
6:55 PM 69.8 °F 60.8 °F 73% 30.33 in 10.0 mi ENE 9.2 mph 17.3 mph N/A   Clear
7:15 PM 69.8 °F 60.8 °F 73% 30.34 in 10.0 mi ENE 12.7 mph 17.3 mph N/A   Clear
7:35 PM 69.8 °F 60.8 °F 73% 30.34 in 10.0 mi ENE 10.4 mph - N/A   Clear
7:55 PM 69.8 °F 60.8 °F 73% 30.34 in 10.0 mi ENE 10.4 mph 18.4 mph N/A   Clear
8:15 PM 69.8 °F 60.8 °F 73% 30.35 in 10.0 mi ENE 10.4 mph - N/A   Clear
8:35 PM 69.8 °F 60.8 °F 73% 30.35 in 10.0 mi ENE 10.4 mph - N/A   Clear
8:55 PM 69.8 °F 60.8 °F 73% 30.36 in 10.0 mi NE 10.4 mph - N/A   Clear
9:15 PM 69.8 °F 60.8 °F 73% 30.36 in 10.0 mi NE 12.7 mph 17.3 mph N/A   Clear
9:35 PM 69.8 °F 60.8 °F 73% 30.36 in 10.0 mi NE 9.2 mph 16.1 mph N/A   Clear
9:55 PM 69.8 °F 60.8 °F 73% 30.37 in 10.0 mi ENE 10.4 mph 17.3 mph N/A   Clear
10:15 PM 68.0 °F 60.8 °F 78% 30.36 in 10.0 mi ENE 10.4 mph - N/A   Clear
10:35 PM 69.8 °F 60.8 °F 73% 30.37 in 10.0 mi ENE 10.4 mph 17.3 mph N/A   Clear
10:55 PM 68.0 °F 60.8 °F 78% 30.37 in 10.0 mi ENE 9.2 mph - N/A   Clear
11:15 PM 68.0 °F 60.8 °F 78% 30.36 in 10.0 mi NE 9.2 mph - N/A   Scattered Clouds
11:35 PM 68.0 °F 60.8 °F 78% 30.36 in 10.0 mi ENE 8.1 mph - N/A   Scattered Clouds
11:55 PM 68.0 °F 60.8 °F 78% 30.35 in 10.0 mi NE 10.4 mph - N/A   Scattered Clouds